GW6642 Weather Reports


Display with metric or nautical units.
time (UTC)temp
F
wind
direction
speed
MPH
gust
MPH
rain 1hr
in
rain 24hr
in
rain mn
in
humidity
%
barometer
mb
20260506172327 67 175 5.0 9.0 0.00 0.00 0.00 71 1011.1
20260506171824 67 175 6.0 10.0 0.00 0.00 0.00 72 1011.2
20260506171321 67 151 3.0 6.0 0.00 0.00 0.00 72 1011.0
20260506170819 68 74 9.0 15.0 0.00 0.00 0.00 70 1011.1
20260506170314 68 285 4.0 8.0 0.00 0.00 0.00 70 1011.2
20260506165814 68 165 7.0 10.0 0.00 0.00 0.00 69 1011.1
20260506165311 69 165 11.0 14.0 0.00 0.00 0.00 68 1010.8
20260506164807 70 219 7.0 11.0 0.00 0.00 0.00 67 1011.2
20260506164304 69 205 4.0 8.0 0.00 0.00 0.00 69 1011.3
20260506163801 68 178 7.0 13.0 0.00 0.00 0.00 67 1011.5
20260506163256 68 156 3.0 4.0 0.00 0.00 0.00 69 1011.6
20260506162752 68 243 8.0 13.0 0.00 0.00 0.00 68 1011.8
20260506162250 68 102 3.0 8.0 0.00 0.00 0.00 69 1011.8
20260506161747 68 98 0.0 4.0 0.00 0.00 0.00 70 1012.0
20260506161244 68 236 3.0 4.0 0.00 0.00 0.00 68 1012.2
20260506160742 69 340 3.0 6.0 0.00 0.00 0.00 67 1012.4
20260506160238 69 226 2.0 3.0 0.00 0.00 0.00 67 1012.4
20260506155737 68 148 1.0 4.0 0.00 0.00 0.00 68 1012.5
20260506155233 68 222 3.0 7.0 0.00 0.00 0.00 67 1012.2
20260506153341 69 232 6.0 14.0 0.00 0.00 0.00 62 1012.2
20260506152837 69 122 1.0 11.0 0.00 0.00 0.00 62 1012.2
20260506152335 69 160 4.0 7.0 0.00 0.00 0.00 60 1012.6
20260506151833 70 330 6.0 9.0 0.00 0.00 0.00 60 1012.3
20260506151329 70 213 2.0 9.0 0.00 0.00 0.00 58 1012.1
20260506150827 71 188 9.0 16.0 0.00 0.00 0.00 57 1012.0
20260506150323 70 186 2.0 4.0 0.00 0.00 0.00 59 1012.1
20260506145820 70 234 6.0 10.0 0.00 0.00 0.00 58 1012.1
20260506145316 69 177 1.0 10.0 0.00 0.00 0.00 59 1012.4
20260506144814 69 208 2.0 8.0 0.00 0.00 0.00 59 1012.4
20260506144311 69 105 2.0 8.0 0.00 0.00 0.00 59 1012.7
20260506143809 69 54 2.0 6.0 0.00 0.00 0.00 59 1012.5
20260506143306 69 218 3.0 7.0 0.00 0.00 0.00 59 1012.6
20260506142804 70 250 6.0 10.0 0.00 0.00 0.00 58 1012.4
20260506142302 70 255 6.0 13.0 0.00 0.00 0.00 58 1012.3
20260506141800 70 149 1.0 10.0 0.00 0.00 0.00 58 1012.4
20260506141258 71 238 5.0 11.0 0.00 0.00 0.00 57 1012.1
20260506140755 70 265 4.0 13.0 0.00 0.00 0.00 58 1012.3
20260506140252 70 132 4.0 8.0 0.00 0.00 0.00 59 1012.1
20260506135749 69 109 5.0 9.0 0.00 0.00 0.00 59 1012.1
20260506135245 69 150 1.0 13.0 0.00 0.00 0.00 60 1012.1
20260506134742 69 329 4.0 9.0 0.00 0.00 0.00 60 1012.1
20260506134238 69 189 4.0 16.0 0.00 0.00 0.00 60 1012.3
20260506133736 69 231 2.0 7.0 0.00 0.00 0.00 60 1012.1
20260506133232 69 276 6.0 9.0 0.00 0.00 0.00 59 1012.1
20260506132729 69 231 8.0 15.0 0.00 0.00 0.00 59 1012.4
20260506132226 69 266 3.0 14.0 0.00 0.00 0.00 59 1012.4
20260506131724 69 252 4.0 13.0 0.00 0.00 0.00 59 1012.4
20260506131220 70 176 4.0 15.0 0.00 0.00 0.00 60 1012.5
20260506130717 70 186 4.0 7.0 0.00 0.00 0.00 59 1012.6
20260506130214 71 307 6.0 13.0 0.00 0.00 0.00 58 1012.4
20260506125712 71 245 7.0 11.0 0.00 0.00 0.00 58 1012.4
20260506125209 70 185 4.0 11.0 0.00 0.00 0.00 59 1012.6
20260506124707 69 218 6.0 8.0 0.00 0.00 0.00 61 1012.6
20260506124205 68 269 5.0 17.0 0.00 0.00 0.00 62 1012.5
20260506123702 69 188 3.0 15.0 0.00 0.00 0.00 62 1012.5
20260506123201 69 102 3.0 9.0 0.00 0.00 0.00 62 1012.3
20260506122657 68 239 5.0 10.0 0.00 0.00 0.00 64 1012.3
20260506122155 68 265 6.0 8.0 0.00 0.00 0.00 63 1012.3
20260506121653 68 169 4.0 9.0 0.00 0.00 0.00 64 1012.3
20260506121148 67 147 5.0 8.0 0.00 0.00 0.00 65 1012.6
20260506120647 66 202 4.0 6.0 0.00 0.00 0.00 67 1012.4
20260506120144 66 163 3.0 10.0 0.00 0.00 0.00 67 1012.9
20260506115642 66 178 12.0 16.0 0.00 0.00 0.00 67 1012.5
20260506115140 66 202 9.0 11.0 0.00 0.00 0.00 67 1012.6
20260506114637 66 123 4.0 7.0 0.00 0.00 0.00 67 1012.6
20260506114135 66 107 2.0 7.0 0.00 0.00 0.00 68 1012.8
20260506113633 66 255 5.0 7.0 0.00 0.00 0.00 68 1012.8
20260506113130 66 145 1.0 4.0 0.00 0.00 0.00 68 1012.6
20260506112626 66 190 3.0 14.0 0.00 0.00 0.00 68 1012.7
20260506112124 66 197 3.0 13.0 0.00 0.00 0.00 68 1012.6
20260506111621 66 165 2.0 7.0 0.00 0.00 0.00 68 1012.5
20260506111119 66 223 6.0 9.0 0.00 0.00 0.00 67 1012.6
20260506110616 66 156 2.0 7.0 0.00 0.00 0.00 68 1012.8
20260506110114 65 170 3.0 9.0 0.00 0.00 0.00 68 1012.6
20260506105610 65 246 2.0 8.0 0.00 0.00 0.00 69 1012.5
20260506105107 65 169 1.0 3.0 0.00 0.00 0.00 69 1012.5
20260506104605 65 169 2.0 10.0 0.00 0.00 0.00 69 1012.5
20260506104102 65 221 3.0 7.0 0.00 0.00 0.00 70 1012.4
20260506103559 65 193 5.0 10.0 0.00 0.00 0.00 70 1012.5
20260506103056 65 195 3.0 14.0 0.00 0.00 0.00 71 1012.5
20260506102554 64 126 2.0 6.0 0.00 0.00 0.00 71 1012.6
20260506102052 64 161 5.0 7.0 0.00 0.00 0.00 71 1012.6
20260506101548 64 170 1.0 6.0 0.00 0.00 0.00 72 1012.5
20260506101045 64 211 5.0 9.0 0.00 0.00 0.00 72 1012.6
20260506100543 64 264 2.0 6.0 0.00 0.00 0.00 72 1012.5
20260506100041 64 105 2.0 6.0 0.00 0.00 0.00 72 1012.5
20260506095540 64 144 4.0 9.0 0.00 0.00 0.00 72 1012.3
20260506095036 64 132 6.0 9.0 0.00 0.00 0.00 72 1012.4
20260506094534 64 210 2.0 6.0 0.00 0.00 0.00 72 1012.3
20260506094031 64 119 5.0 9.0 0.00 0.00 0.00 73 1012.5
20260506093530 65 177 3.0 9.0 0.00 0.00 0.00 72 1012.4
20260506093027 64 108 4.0 10.0 0.00 0.00 0.00 72 1012.6
20260506092524 65 105 5.0 8.0 0.00 0.00 0.00 72 1012.3
20260506092021 65 222 5.0 7.0 0.00 0.00 0.00 73 1012.4
20260506091520 65 159 2.0 8.0 0.00 0.00 0.00 72 1012.4
20260506091016 64 198 7.0 8.0 0.00 0.00 0.00 73 1012.4
20260506090514 64 202 3.0 6.0 0.00 0.00 0.00 73 1012.7
20260506090010 65 151 4.0 7.0 0.00 0.00 0.00 73 1012.6
20260506085507 65 184 4.0 6.0 0.00 0.00 0.00 72 1012.6
20260506085003 65 152 2.0 8.0 0.00 0.00 0.00 72 1012.4
20260506084500 65 213 3.0 4.0 0.00 0.00 0.00 73 1012.6
20260506083956 65 157 3.0 9.0 0.00 0.00 0.00 73 1012.7
20260506083454 65 123 5.0 9.0 0.00 0.00 0.00 73 1012.6
20260506082951 65 185 3.0 9.0 0.00 0.00 0.00 73 1012.8
20260506082448 65 212 1.0 3.0 0.00 0.00 0.00 73 1012.7
20260506081943 65 88 5.0 8.0 0.00 0.00 0.00 73 1012.8
20260506081442 65 204 2.0 7.0 0.00 0.00 0.00 73 1012.8
20260506080939 65 124 1.0 4.0 0.00 0.00 0.00 73 1012.8
20260506080436 65 206 2.0 4.0 0.00 0.00 0.00 73 1012.9
20260506073420 66 102 0.0 8.0 0.00 0.00 0.00 72 1012.7
20260506072917 66 130 3.0 7.0 0.00 0.00 0.00 72 1012.9
20260506072414 66 258 6.0 9.0 0.00 0.00 0.00 71 1012.8
20260506071912 66 229 2.0 7.0 0.00 0.00 0.00 71 1012.7
20260506071410 66 134 3.0 10.0 0.00 0.00 0.00 71 1012.8
20260506070906 66 176 4.0 4.0 0.00 0.00 0.00 71 1012.7
20260506070403 66 127 5.0 11.0 0.00 0.00 0.00 71 1013.0
20260506062340 67 179 5.0 8.0 0.00 0.00 0.00 70 1012.9
20260506061836 67 234 3.0 9.0 0.00 0.00 0.00 70 1013.1
20260506061333 67 282 4.0 11.0 0.00 0.00 0.00 69 1012.9
20260506060831 67 169 5.0 10.0 0.00 0.00 0.00 69 1013.0
20260506060329 67 171 5.0 7.0 0.00 0.00 0.00 69 1013.0
20260506051301 68 290 3.0 7.0 0.00 0.00 0.00 66 1013.4
20260506050759 68 213 4.0 7.0 0.00 0.00 0.00 66 1013.4
20260506050256 68 123 1.0 2.0 0.00 0.00 0.00 66 1013.5
20260506044746 68 285 3.0 8.0 0.00 0.00 0.00 66 1013.4
20260506044244 68 14 1.0 7.0 0.00 0.00 0.00 65 1013.5
20260506043741 68 184 3.0 6.0 0.00 0.00 0.00 65 1013.3
20260506043238 68 176 1.0 9.0 0.00 0.00 0.00 64 1013.2
20260506042737 68 169 7.0 10.0 0.00 0.00 0.00 64 1013.3
20260506042235 68 163 3.0 9.0 0.00 0.00 0.00 64 1013.4
20260506041733 68 133 5.0 11.0 0.00 0.00 0.00 64 1013.1
20260506041230 68 179 2.0 3.0 0.00 0.00 0.00 63 1013.5
20260506040727 68 99 5.0 8.0 0.00 0.00 0.00 63 1013.1
20260506040224 68 192 6.0 11.0 0.00 0.00 0.00 63 1013.5
20260506035721 68 222 3.0 8.0 0.00 0.00 0.00 63 1013.1
20260506035218 68 245 3.0 4.0 0.00 0.00 0.00 62 1013.1
20260506034715 68 91 2.0 6.0 0.00 0.00 0.00 62 1013.2
20260506034212 69 194 2.0 14.0 0.00 0.00 0.00 62 1013.3
20260506033709 69 168 4.0 13.0 0.00 0.00 0.00 61 1013.3
20260506033206 69 179 4.0 6.0 0.00 0.00 0.00 61 1013.1
20260506032703 69 243 6.0 16.0 0.00 0.00 0.00 60 1013.2
20260506032200 69 94 1.0 9.0 0.00 0.00 0.00 60 1013.1
20260506031657 69 267 7.0 17.0 0.00 0.00 0.00 60 1013.4
20260506031154 69 152 6.0 11.0 0.00 0.00 0.00 60 1013.3
20260506030653 69 193 4.0 6.0 0.00 0.00 0.00 60 1013.2
20260506030149 69 183 8.0 11.0 0.00 0.00 0.00 59 1013.3
20260506025646 69 184 2.0 8.0 0.00 0.00 0.00 59 1013.4
20260506025142 70 153 2.0 8.0 0.00 0.00 0.00 58 1013.4
20260506024640 70 203 4.0 6.0 0.00 0.00 0.00 58 1013.4
20260506024136 70 198 7.0 13.0 0.00 0.00 0.00 57 1013.3
20260506023632 70 204 6.0 14.0 0.00 0.00 0.00 57 1013.4
20260506023129 70 136 6.0 14.0 0.00 0.00 0.00 56 1013.4
20260506022627 70 192 6.0 11.0 0.00 0.00 0.00 56 1013.5
20260506022124 70 119 3.0 14.0 0.00 0.00 0.00 55 1013.4
20260506021622 71 189 5.0 13.0 0.00 0.00 0.00 54 1013.4
20260506021119 71 151 4.0 10.0 0.00 0.00 0.00 54 1013.4
20260506020616 71 211 4.0 11.0 0.00 0.00 0.00 54 1013.5
20260506020114 71 229 2.0 8.0 0.00 0.00 0.00 54 1013.4
20260506015611 71 119 4.0 7.0 0.00 0.00 0.00 53 1013.3
20260506015108 71 153 6.0 9.0 0.00 0.00 0.00 53 1013.2
20260506014606 71 191 5.0 13.0 0.00 0.00 0.00 52 1013.2
20260506014100 71 227 5.0 18.0 0.00 0.00 0.00 52 1013.2
20260506013559 71 161 9.0 14.0 0.00 0.00 0.00 52 1013.1
20260506013055 71 125 2.0 7.0 0.00 0.00 0.00 53 1013.0
20260506012552 71 163 4.0 8.0 0.00 0.00 0.00 52 1013.0
20260506012048 71 238 6.0 11.0 0.00 0.00 0.00 52 1013.0
20260506011546 72 129 6.0 11.0 0.00 0.00 0.00 52 1012.9
20260506011042 72 228 8.0 16.0 0.00 0.00 0.00 52 1012.9
20260506010542 71 219 4.0 15.0 0.00 0.00 0.00 52 1012.7
20260506010038 72 104 3.0 4.0 0.00 0.00 0.00 52 1012.7
20260506005535 72 224 2.0 9.0 0.00 0.00 0.00 52 1013.0
20260506005031 72 223 8.0 11.0 0.00 0.00 0.00 52 1012.8
20260506004529 72 150 6.0 8.0 0.00 0.00 0.00 52 1012.7
20260506004025 72 151 11.0 15.0 0.00 0.00 0.00 51 1012.8
20260506003522 73 244 4.0 8.0 0.00 0.00 0.00 51 1012.7
20260506003018 73 224 9.0 16.0 0.00 0.00 0.00 50 1012.6
20260506002514 73 211 10.0 14.0 0.00 0.00 0.00 50 1012.3
20260506002009 73 128 2.0 7.0 0.00 0.00 0.00 48 1012.6
20260506001506 74 213 4.0 8.0 0.00 0.00 0.00 47 1012.3
20260506001004 75 125 3.0 6.0 0.00 0.00 0.00 45 1012.4
20260506000501 75 104 4.0 8.0 0.00 0.00 0.00 43 1012.3
20260505235958 75 167 6.0 9.0 0.00 0.00 0.00 41 1012.2
20260505235456 76 228 3.0 9.0 0.00 0.00 0.00 41 1012.3
20260505234952 76 84 3.0 7.0 0.00 0.00 0.00 40 1012.1
20260505234450 77 198 2.0 11.0 0.00 0.00 0.00 39 1012.0
20260505233946 77 103 2.0 6.0 0.00 0.00 0.00 38 1011.9
20260505233444 78 180 2.0 10.0 0.00 0.00 0.00 37 1012.0
20260505232941 78 215 8.0 10.0 0.00 0.00 0.00 36 1011.9
20260505232440 78 249 5.0 10.0 0.00 0.00 0.00 35 1011.7
20260505231936 78 106 3.0 6.0 0.00 0.00 0.00 36 1011.8
20260505231433 78 168 2.0 8.0 0.00 0.00 0.00 35 1011.6
20260505230932 78 109 2.0 3.0 0.00 0.00 0.00 35 1011.6
20260505230429 79 206 6.0 10.0 0.00 0.00 0.00 35 1011.6
20260505225925 79 214 4.0 8.0 0.00 0.00 0.00 35 1011.6
20260505225422 79 266 5.0 8.0 0.00 0.00 0.00 35 1011.6
20260505224918 80 179 6.0 14.0 0.00 0.00 0.00 34 1011.6
20260505224415 80 190 3.0 10.0 0.00 0.00 0.00 35 1011.6
20260505223912 80 167 3.0 14.0 0.00 0.00 0.00 34 1011.5
20260505223409 80 202 7.0 9.0 0.00 0.00 0.00 34 1011.6
20260505222905 80 198 8.0 11.0 0.00 0.00 0.00 33 1011.4
20260505222402 81 151 3.0 16.0 0.00 0.00 0.00 33 1011.5
20260505221858 81 210 5.0 13.0 0.00 0.00 0.00 33 1011.3
20260505221355 81 133 10.0 15.0 0.00 0.00 0.00 32 1011.4
20260505220852 82 189 1.0 13.0 0.00 0.00 0.00 32 1011.3
20260505220349 82 283 5.0 19.0 0.00 0.00 0.00 30 1011.2
20260505215847 82 264 6.0 14.0 0.00 0.00 0.00 30 1011.3
20260505215345 82 191 5.0 14.0 0.00 0.00 0.00 30 1011.4
20260505214843 82 159 3.0 7.0 0.00 0.00 0.00 30 1011.4
20260505214340 83 140 8.0 16.0 0.00 0.00 0.00 29 1011.3
20260505213837 83 204 2.0 10.0 0.00 0.00 0.00 28 1011.0
20260505213335 83 268 6.0 15.0 0.00 0.00 0.00 26 1011.3
20260505212831 83 191 8.0 17.0 0.00 0.00 0.00 25 1011.2
20260505212328 83 124 4.0 14.0 0.00 0.00 0.00 26 1011.2
20260505211823 83 244 11.0 17.0 0.00 0.00 0.00 25 1011.0
20260505211321 83 141 1.0 16.0 0.00 0.00 0.00 26 1011.0
20260505210818 84 190 8.0 14.0 0.00 0.00 0.00 25 1011.0
20260505210315 83 234 3.0 11.0 0.00 0.00 0.00 25 1010.8
20260505205812 84 119 3.0 17.0 0.00 0.00 0.00 25 1010.9
20260505205310 84 112 3.0 19.0 0.00 0.00 0.00 25 1010.9
20260505204806 84 231 3.0 10.0 0.00 0.00 0.00 25 1011.1
20260505204304 84 85 1.0 6.0 0.00 0.00 0.00 30 1010.7
20260505203801 84 204 11.0 16.0 0.00 0.00 0.00 29 1011.0
20260505203258 84 278 3.0 14.0 0.00 0.00 0.00 30 1011.0
20260505202754 84 233 6.0 24.0 0.00 0.00 0.00 30 1010.8
20260505202251 84 230 8.0 11.0 0.00 0.00 0.00 31 1011.0
20260505201747 84 237 10.0 15.0 0.00 0.00 0.00 30 1010.9
20260505201245 84 211 8.0 24.0 0.00 0.00 0.00 30 1011.1
20260505200743 84 210 6.0 13.0 0.00 0.00 0.00 31 1010.9
20260505200240 84 102 2.0 10.0 0.00 0.00 0.00 32 1011.0
20260505195735 84 173 6.0 11.0 0.00 0.00 0.00 31 1010.9
20260505195233 84 200 8.0 17.0 0.00 0.00 0.00 31 1011.2
20260505194730 85 143 5.0 10.0 0.00 0.00 0.00 31 1011.0
20260505194226 84 221 4.0 8.0 0.00 0.00 0.00 31 1011.1
20260505193722 84 285 7.0 16.0 0.00 0.00 0.00 31 1011.2
20260505193220 84 270 13.0 18.0 0.00 0.00 0.00 31 1011.2
20260505192718 84 165 7.0 11.0 0.00 0.00 0.00 30 1011.3
20260505192215 83 211 5.0 14.0 0.00 0.00 0.00 31 1011.3
20260505191714 84 201 3.0 13.0 0.00 0.00 0.00 33 1011.3
20260505191212 84 272 1.0 9.0 0.00 0.00 0.00 33 1011.5
20260505190708 84 197 8.0 16.0 0.00 0.00 0.00 31 1011.4
20260505190207 84 276 7.0 15.0 0.00 0.00 0.00 30 1011.4
20260505185704 84 298 4.0 13.0 0.00 0.00 0.00 33 1011.7
20260505185201 84 334 7.0 16.0 0.00 0.00 0.00 31 1011.5
20260505184657 83 168 11.0 15.0 0.00 0.00 0.00 32 1011.9
20260505184154 83 316 4.0 14.0 0.00 0.00 0.00 34 1011.9
20260505183651 83 132 3.0 17.0 0.00 0.00 0.00 30 1012.0
20260505183149 84 204 6.0 11.0 0.00 0.00 0.00 33 1012.1
20260505182645 83 140 4.0 13.0 0.00 0.00 0.00 32 1012.1
20260505182142 83 160 10.0 14.0 0.00 0.00 0.00 31 1012.0
20260505181638 84 122 2.0 9.0 0.00 0.00 0.00 34 1012.2
20260505181136 83 299 5.0 13.0 0.00 0.00 0.00 34 1012.4
20260505180631 83 248 9.0 13.0 0.00 0.00 0.00 33 1012.4
20260505180129 83 209 6.0 11.0 0.00 0.00 0.00 33 1012.4
20260505175625 83 278 5.0 7.0 0.00 0.00 0.00 35 1012.4
20260505175122 83 188 5.0 8.0 0.00 0.00 0.00 33 1012.4
20260505174618 83 200 4.0 9.0 0.00 0.00 0.00 34 1012.5
20260505174114 82 242 4.0 8.0 0.00 0.00 0.00 34 1012.6
20260505173611 83 120 4.0 15.0 0.00 0.00 0.00 33 1012.6
20260505173108 82 235 2.0 9.0 0.00 0.00 0.00 35 1012.6